{"data":{"norad_id":58478,"intl_designator":"2023-186F","name":"STARLINK-30990","alt_names":[],"object_type":"PAYLOAD","status":"ACTIVE","operator":null,"country":"US","launch_date":"2023-12-03","launch_site_code":"AFETR","launch_vehicle":null,"mission":null,"orbit_class":"UNKNOWN","rcs_meters":null,"size_class":null,"mass_kg":null,"dimensions":null,"purposes":["comms"],"wikipedia_slug":null,"has_3d_model":false,"image_url":null,"decayed_at":null,"tle_current":{"epoch":"2026-09-20T20:35:28.701312Z","epoch_age_seconds":115885,"freshness":"FRESH","line1":"1 58478U 23186F   26263.85797108  .00000000  00000+0  95324-5 0  9993","line2":"2 58478  43.0053  44.9375 0002329 266.2314  93.8271 15.27577430155744","mean_motion":15.2757743,"eccentricity":0.0002329,"inclination_deg":43.0053,"raan_deg":44.9375,"arg_perigee_deg":266.2314,"mean_anomaly_deg":93.8271,"bstar":9.5324e-6,"rev_number":15574,"period_min":94.26690730826,"perigee_km":481.45881952094,"apogee_km":484.65476358905,"semimajor_km":6861.193791555,"source":"CELESTRAK","updated_at":"2026-09-21T09:00:33.881030Z"}}}